This demonstration page uses our WeatherBlox Daily Observations layout. Learn more.

Left ArrowRight Arrow

44.89941, -97.11507

Hourly Observations for May 6, 2019

Temp ( °F °C ) Dew Point ( °F °C ) Humidity (%) Winds ( mph kmh ) Pressure ( in mb ) Visibility ( mi km ) Precip ( " mm )
12:53 am 00:53 Cloudy 44 6.7 30 -1.1 58 58 ENE 9 15 30.04 1017 10 16 0.00 0.00
1:53 am 01:53 Cloudy 43 6.1 32 0 65 65 NE 7 11 30.03 1017 10 16 0.00 0.00
2:53 am 02:53 Cloudy 43 6.1 31 -0.6 63 63 NNE 5 7 30.05 1018 10 16 0.00 0.00
3:53 am 03:53 Cloudy 41 5 33 0.6 73 73 N 7 11 30.07 1018 10 16 0.00 0.00
4:53 am 04:53 Cloudy 41 5 32 0 70 70 NE 7 11 30.08 1019 10 16 0.00 0.00
5:53 am 05:53 Cloudy 40 4.4 32 0 73 73 NNE 8 13 30.10 1019 10 16 0.00 0.00
6:53 am 06:53 Cloudy 39 3.9 31 -0.6 73 73 NNE 10 17 30.12 1020 10 16 0.00 0.00
7:53 am 07:53 Cloudy 40 4.4 31 -0.6 70 70 NNE 6 9 30.15 1021 10 16 0.00 0.00
8:53 am 08:53 Cloudy 41 5 31 -0.6 67 67 NNE 12 19 30.15 1021 10 16 0.00 0.00
9:53 am 09:53 Cloudy 44 6.7 31 -0.6 60 60 ENE 9 15 30.17 1022 10 16 0.00 0.00
10:53 am 10:53 Cloudy 46 7.8 31 -0.6 56 56 NE 8 13 30.17 1022 10 16 0.00 0.00
11:53 am 11:53 Cloudy 48 8.9 29 -1.7 48 48 ENE 8 13 30.17 1022 10 16 0.00 0.00
12:53 pm 12:53 Mostly Cloudy 50 10 29 -1.7 44 44 NE 10 17 30.17 1022 10 16 0.00 0.00
1:53 pm 13:53 Mostly Cloudy 50 10 29 -1.7 44 44 NNE 9 15 30.16 1022 10 16 0.00 0.00
2:53 pm 14:53 Mostly Cloudy 51 10.6 28 -2.2 41 41 NNE 9 15 30.16 1021 10 16 0.00 0.00
3:53 pm 15:53 Cloudy 50 10 27 -2.8 41 41 NNE 8 13 30.17 1022 10 16 0.00 0.00
4:53 pm 16:53 Cloudy 47 8.3 30 -1.1 52 52 N 12 19 30.19 1022 10 16 0.00 0.00
5:53 pm 17:53 Cloudy with Light Rain 44 6.7 32 0 63 63 NNE 8 13 30.22 1023 10 16 0.00 0.03
6:53 pm 18:53 Cloudy 43 6.1 33 0.6 68 68 NE 7 11 30.25 1024 10 16 0.00 0.03
7:53 pm 19:53 Cloudy with Light Rain 41 5 33 0.6 73 73 NNE 8 13 30.27 1025 10 16 0.01 0.25
8:53 pm 20:53 Mostly Cloudy 41 5 32 0 70 70 Calm 30.27 1025 10 16 0.00 0.03
9:53 pm 21:53 Partly Cloudy 40 4.4 33 0.6 77 77 Calm 30.28 1025 10 16 0.00 0.00
10:53 pm 22:53 Clear 36 2.2 31 -0.6 82 82 NNE 3 6 30.28 1025 10 16 0.00 0.00
11:53 pm 23:53 Clear 33 0.6 30 -1.1 89 89 NNE 5 7 30.27 1025 10 16 0.00 0.00

Powered by AerisWeather